Погода в Зеюко

Россия / Карачаево-Черкесская Республика     44°07′01″N   41°49′31″E
темп.,
°C
ветер,
м/с
пор.,
м/с
влажн.,
%
обл.,
%
осадки,
мм/ч
давл.,
гПа
погр.,
м
21 января, пт
пт2100:00−12ю467796 0.0 102590
03:00−8ю3571100 0.0 1023102
06:00−9ю457598 0.0 102265
09:00−7ю45760 0.0 102191
12:00−1ю22660 0.0 1018148
15:00+1в11811 0.0 101622
18:00−4ю228699 0.0 101812
21:00−4ю4576100 0.0 101865
22 января, сб
сб2200:00−4ю3476100 0.0 101663
03:00−4ю4580100 0.0 101571
06:00−4ююз3381100 0.0 101441
09:00−4зюз1184100 0.0 101523
12:00−1ссв2279100 0.0 1014204
15:00−2ссв3394100 0.0 1014374
18:00−3св2296100 0.1 1016293
21:00−3всв1295100 0.1 1015168
23 января, вс
вс2300:00−4св2298100 0.1 1014124
03:00−5в1194100 0.1 1014189
06:00−5в1195100 0.0 101312
09:00−5вюв1289100 0.0 101274
12:00−2ссв1182100 0.0 1010172
15:00−2ссз2291100 0.0 1012237
18:00−4св1198100 0.0 101317
21:00−5с119975 0.0 101511
24 января, пн
пн2400:00−4ююз0194100 0.0 1015153
03:00−4в119599 0.0 1015167
06:00−4всв0095100 0.0 101439
09:00−4св1194100 0.0 101566
12:00−2ссв2190100 0.0 1014237
15:00−1ссв2293100 0.1 1015320
18:00−2з1198100 1.1 101671
21:00−2ссв119996 5.0 101895
25 января, вт
вт2500:00−2юв1198100 0.7 101955
03:00−3ююв2296100 0.9 102039
06:00−3ююз2294100 0.2 102134
09:00−2юз2290100 0.9 102296
12:00−2ссв3493100 1.4 1023425
15:00−2ссв3292100 1.4 1024458
18:00−3св2298100 0.1 1026126
21:00−4вюв1197100 0.2 102658